[[{"header":{"parameterUnit":"m.s-1","parameterCategory":2,"la1":30.2991,"la2":30.254,"lo1":-89.0895,"lo2":-89.0444,"dy":0.0017,"dx":0.0017,"nx":28,"ny":28,"refTime":"2025-02-24T09:00:00:Z","depth":"0","parameterNumber":2,"parameterNumberName":"U-component_of_CURRENTS"},"data":[0,0,0,0,0,0,0,0,0,0,0,0,0,0,0,0,0,0,0,0,0,0,0,0,0,0,0,0,0,0,0,0,0,0,0,0,0,0,0,0,0,0,0,0,0,0,0,0,0,0,0,0,0,0,0,0,0,0,-0.2567,-0.2567,0,-0.2591,-0.2591,-0.2591,-0.2524,-0.2523,-0.2521,-0.2519,-0.2768,-0.2776,-0.2784,0,0,0,0,0,0,0,0,0,0,0,0,0,-0.2388,-0.2392,-0.2567,-0.2567,-0.2568,-0.2591,-0.2591,-0.2591,-0.2525,-0.2523,-0.2521,-0.2519,-0.2765,-0.2775,-0.2785,0,0,0,0,0,0,0,0,0,0,0,0,0,-0.2441,-0.2393,-0.2567,-0.2541,-0.2539,-0.2591,-0.2591,-0.2591,-0.2525,-0.2523,-0.252,-0.2518,-0.2762,-0.2774,-0.2786,-0.2913,0,0,-0.2824,-0.2829,0,0,0,0,0,0,0,0,-0.2438,-0.2447,-0.2544,-0.2543,-0.2541,-0.2556,-0.2619,-0.2711,-0.2526,-0.2526,-0.2519,-0.2516,-0.2723,-0.2738,-0.2739,-0.2925,-0.2936,-0.2825,-0.2832,-0.2838,-0.2841,0,0,0,0,0,0,0,-0.2435,-0.2445,-0.2572,-0.2545,-0.2543,-0.2503,-0.2507,-0.2635,-0.264,-0.2526,-0.2522,-0.2532,-0.2722,-0.2727,-0.2745,-0.2939,-0.2825,-0.2835,-0.2843,-0.2848,-0.3281,-0.3285,0,0,0,0,0,0,-0.2447,-0.2443,-0.2572,-0.2573,-0.2486,-0.2508,-0.2514,-0.255,-0.2633,-0.2642,-0.2534,-0.2529,-0.2707,-0.2731,-0.2754,-0.2902,-0.2838,-0.2849,-0.2856,-0.3277,-0.3282,-0.3287,0,0,0,0,0,0,-0.2444,-0.246,-0.2571,-0.2509,-0.2521,-0.2515,-0.2556,-0.2552,-0.2553,-0.2638,-0.265,-0.2539,-0.2706,-0.2737,-0.2861,-0.2912,-0.2855,-0.2866,-0.3272,-0.3279,-0.3285,-0.3205,0,0,0,0,0,0,-0.2439,-0.2459,-0.2488,-0.2512,-0.2525,-0.2606,-0.2559,-0.2555,-0.2566,-0.2559,-0.2648,-0.2667,-0.2707,-0.2842,-0.2873,-0.2928,-0.2875,-0.3267,-0.3275,-0.3283,-0.3202,-0.3208,-0.3212,0,0,0,0,0,-0.2433,-0.2502,-0.249,-0.2505,-0.2567,-0.2608,-0.2611,-0.2593,-0.2569,-0.2582,-0.2634,-0.2664,-0.2914,-0.2855,-0.289,-0.2949,-0.3263,-0.3273,-0.3282,-0.32,-0.3207,-0.3212,0,0,0,0,0,0,-0.2445,-0.2503,-0.249,-0.2573,-0.2584,-0.2598,-0.2627,-0.2606,-0.2653,-0.2655,-0.2711,-0.2737,-0.2868,-0.2941,-0.2874,-0.3106,-0.31,-0.3116,-0.3026,-0.3033,-0.3038,-0.298,-0.2886,0,0,0,0,0,-0.2463,-0.2527,-0.255,-0.2614,-0.2629,-0.2625,-0.2639,-0.2623,-0.2666,-0.2679,-0.2726,-0.2822,-0.2941,-0.3003,-0.3111,-0.3243,-0.3218,-0.3314,-0.3319,-0.3321,-0.3306,-0.332,-0.3321,-0.3317,-0.3317,-0.3317,0,0,-0.249,-0.2526,-0.2564,-0.2619,-0.2632,-0.2647,-0.2627,-0.2661,-0.266,-0.2715,-0.2751,-0.2846,-0.2984,-0.3105,-0.3175,-0.3166,-0.3303,-0.3333,-0.3334,-0.3316,-0.3329,-0.3328,-0.3327,-0.3324,-0.3323,-0.3322,0,0,-0.255,-0.2605,-0.2654,-0.2667,-0.269,-0.2688,-0.2698,-0.2708,-0.2702,-0.2759,-0.281,-0.2915,-0.3071,-0.3158,-0.3234,-0.3352,-0.3329,-0.3417,-0.339,-0.3405,-0.3402,-0.3399,-0.3299,-0.3288,-0.3416,-0.3416,-0.3416,0,-0.2571,-0.2618,-0.2671,-0.2696,-0.2696,-0.2705,-0.2709,-0.273,-0.2763,-0.2769,-0.2767,-0.2973,-0.3089,-0.3242,-0.3279,-0.3356,-0.3316,-0.3338,-0.3398,-0.3396,-0.3395,-0.3293,-0.3283,-0.3413,-0.3413,-0.3414,-0.3414,0,-0.2632,-0.2657,-0.2694,-0.2717,-0.2736,-0.2753,-0.277,-0.2781,-0.2773,-0.2773,-0.288,-0.301,-0.3115,-0.3204,-0.3279,-0.3373,-0.3325,-0.3389,-0.3349,-0.3388,-0.3281,-0.3271,-0.3409,-0.341,-0.3411,-0.3412,0,0,-0.2679,-0.2723,-0.2723,-0.2699,-0.2731,-0.2742,-0.2774,-0.278,-0.2772,-0.2827,-0.2816,-0.3046,-0.3074,-0.3167,-0.3284,-0.3325,-0.328,-0.3349,-0.3351,-0.3184,-0.3207,-0.3037,-0.3008,-0.3338,-0.3338,-0.3338,-0.3105,0,-0.2676,-0.2692,-0.2727,-0.2713,-0.2701,-0.2724,-0.2742,-0.2761,-0.2771,-0.277,-0.2893,-0.296,-0.3076,-0.3127,-0.3187,-0.3285,-0.3262,-0.333,-0.3251,-0.3247,-0.304,-0.2996,-0.2919,-0.2695,-0.3095,-0.3093,-0.3092,0,-0.267,-0.2676,-0.2661,-0.265,-0.2653,-0.2659,-0.2649,-0.2669,-0.2707,-0.2717,-0.2785,-0.285,-0.296,-0.3031,-0.312,-0.3149,-0.3158,-0.3201,-0.3194,-0.3055,-0.306,-0.2746,-0.2661,-0.2659,-0.3076,-0.3078,-0.3079,0,-0.2584,-0.2606,-0.2577,-0.2577,-0.2597,-0.2594,-0.2605,-0.2639,-0.265,-0.2669,-0.2664,-0.2768,-0.2813,-0.2875,-0.2961,-0.3031,-0.2978,-0.3083,-0.2907,-0.289,-0.282,-0.2797,-0.2674,-0.3075,-0.3075,-0.3076,-0.3076,0,-0.2515,-0.2485,-0.2531,-0.2507,-0.2478,-0.2523,-0.2503,-0.2524,-0.256,-0.2564,-0.2632,-0.2652,-0.2782,-0.278,-0.2858,-0.2802,-0.2877,-0.2849,-0.2825,-0.2785,-0.2764,-0.276,-0.2815,-0.3067,-0.3069,-0.3071,-0.3072,0,-0.239,-0.2425,-0.2391,-0.242,-0.2426,-0.2401,-0.2441,-0.2433,-0.2477,-0.2475,-0.2477,-0.2537,-0.2528,-0.2575,-0.2631,-0.2638,-0.2569,-0.2582,-0.2453,-0.2418,-0.2265,-0.232,-0.2144,-0.2076,-0.2334,-0.2329,-0.2324,0,-0.2313,-0.2285,-0.2313,-0.2302,-0.2309,-0.2303,-0.2303,-0.2368,-0.2377,-0.2421,-0.241,-0.2382,-0.2363,-0.2286,-0.228,-0.2218,-0.2327,-0.2087,-0.2242,-0.218,-0.2228,-0.2287,-0.225,-0.209,-0.2084,-0.2079,-0.2075,0,-0.2164,-0.2191,-0.218,-0.2164,-0.216,-0.2162,-0.2176,-0.218,-0.2257,-0.2262,-0.2263,-0.2241,-0.2148,-0.2055,-0.1917,-0.1912,-0.2028,-0.1976,-0.2,-0.2063,-0.2039,-0.1986,-0.2247,-0.203,-0.2034,-0.2037,-0.204,-0.2042,-0.2055,-0.2026,-0.2032,-0.2004,-0.2009,-0.2001,-0.1962,-0.2012,-0.2008,-0.2003,-0.2078,-0.2021,-0.1948,-0.1765,-0.1696,-0.1553,-0.1681,-0.159,-0.1658,-0.1717,-0.167,-0.1744,-0.1466,-0.1468,-0.1469,-0.147,-0.147,0,-0.1905,-0.1897,-0.1868,-0.1844,-0.1801,-0.1852,-0.1855,-0.1809,-0.1769,-0.1816,-0.1802,-0.1766,-0.1617,-0.1556,-0.1411,-0.1315,-0.1331,-0.1289,-0.143,-0.1409,-0.1537,-0.1549,-0.1172,-0.1172,-0.1172,-0.1172,-0.1172,-0.1172,-0.1825,-0.1757,-0.1749,-0.1635,-0.1621,-0.1525,-0.15,-0.1466,-0.1474,-0.1436,-0.1455,-0.1507,-0.1489,-0.152,-0.1357,-0.126,-0.1274,-0.1194,-0.1221,-0.1421,-0.1458,-0.1495,-0.1518,-0.114,-0.1141,-0.1068,-0.1068,-0.1068]},{"header":{"parameterUnit":"m.s-1","parameterCategory":2,"la1":30.2991,"la2":30.254,"lo1":-89.0895,"lo2":-89.0444,"dy":0.0017,"dx":0.0017,"nx":28,"ny":28,"refTime":"2025-02-24T09:00:00:Z","depth":"0","parameterNumber":3,"parameterNumberName":"V-component_of_CURRENTS"},"data":[0,0,0,0,0,0,0,0,0,0,0,0,0,0,0,0,0,0,0,0,0,0,0,0,0,0,0,0,0,0,0,0,0,0,0,0,0,0,0,0,0,0,0,0,0,0,0,0,0,0,0,0,0,0,0,0,0,0,-0.0487,-0.0486,0,-0.0353,-0.0351,-0.0349,-0.025,-0.0249,-0.0249,-0.0248,-0.0045,-0.004,-0.0035,0,0,0,0,0,0,0,0,0,0,0,0,0,-0.0523,-0.0524,-0.0487,-0.0486,-0.0484,-0.0353,-0.0351,-0.0349,-0.025,-0.0249,-0.0248,-0.0248,-0.0046,-0.004,-0.0035,0,0,0,0,0,0,0,0,0,0,0,0,0,-0.0458,-0.0524,-0.0487,-0.0421,-0.0414,-0.0354,-0.0351,-0.0348,-0.025,-0.0249,-0.0248,-0.0247,-0.0048,-0.0041,-0.0034,-0.0009,0,0,-0.0012,-0.0009,0,0,0,0,0,0,0,0,-0.0462,-0.0457,-0.0432,-0.0425,-0.0417,-0.0319,-0.0289,-0.0232,-0.025,-0.031,-0.0248,-0.0247,-0.0132,-0.0118,-0.0092,0.0001,0.001,-0.0011,-0.0007,-0.0004,-0.0002,0,0,0,0,0,0,0,-0.0467,-0.0461,-0.0431,-0.0431,-0.0422,-0.0352,-0.0343,-0.0277,-0.0225,-0.0304,-0.0297,-0.0287,-0.0127,-0.01,-0.0087,0.0013,-0.0011,-0.0005,-0.0,0.0002,0.0153,0.0152,0,0,0,0,0,0,-0.0497,-0.0467,-0.0436,-0.0427,-0.0441,-0.0353,-0.0342,-0.035,-0.0227,-0.0208,-0.0288,-0.0283,-0.0113,-0.0095,-0.0079,-0.0066,-0.0004,0.0003,0.0007,0.0153,0.0153,0.0152,0,0,0,0,0,0,-0.0499,-0.0496,-0.0441,-0.0444,-0.0433,-0.0355,-0.0363,-0.0348,-0.0318,-0.0215,-0.0195,-0.0275,-0.0111,-0.0089,-0.0033,-0.0057,0.0006,0.0013,0.0154,0.0153,0.0153,-0.0024,0,0,0,0,0,0,-0.0501,-0.0498,-0.0513,-0.0448,-0.0434,-0.0415,-0.0363,-0.0346,-0.0315,-0.0306,-0.0197,-0.0177,-0.0109,-0.0045,-0.0026,-0.0045,0.0018,0.0154,0.0153,0.0153,-0.0018,-0.0031,-0.0042,0,0,0,0,0,-0.0503,-0.053,-0.0515,-0.0511,-0.0458,-0.0416,-0.0402,-0.034,-0.0315,-0.0308,-0.0242,-0.0181,-0.0035,-0.004,-0.0018,-0.0035,0.0154,0.0153,0.0153,-0.0013,-0.0028,-0.0042,0,0,0,0,0,0,-0.0551,-0.0521,-0.0503,-0.0519,-0.0476,-0.04,-0.0392,-0.035,-0.0292,-0.0285,-0.0188,-0.0164,-0.0122,-0.005,-0.0058,0.001,0.0071,0.0075,-0.0062,-0.0075,-0.0087,-0.0104,0.0024,0,0,0,0,0,-0.0573,-0.0588,-0.0536,-0.055,-0.0536,-0.0467,-0.0442,-0.0401,-0.0342,-0.0315,-0.0241,-0.0163,-0.0108,-0.0072,-0.0003,0.0031,0.0102,0.0038,0.0026,0.0015,0.0019,0.0078,0.007,0.015,0.015,0.015,0,0,-0.0597,-0.0582,-0.059,-0.0562,-0.0525,-0.0507,-0.0449,-0.0423,-0.0405,-0.0303,-0.026,-0.0201,-0.0107,-0.0073,-0.0047,-0.0017,0.0032,0.0015,0.0004,0.0014,0.0076,0.0068,0.0061,0.0149,0.0149,0.015,0,0,-0.0644,-0.0641,-0.066,-0.0631,-0.0588,-0.0545,-0.0545,-0.0475,-0.0444,-0.0399,-0.0332,-0.0293,-0.0186,-0.0141,-0.0102,-0.0133,-0.0035,-0.0106,-0.0181,-0.0126,-0.0133,-0.0138,-0.0062,-0.0059,-0.0113,-0.0113,-0.0113,0,-0.0673,-0.0687,-0.0656,-0.0656,-0.0636,-0.0571,-0.0569,-0.0532,-0.0452,-0.0433,-0.0402,-0.0286,-0.0219,-0.019,-0.0208,-0.0163,-0.0105,-0.0146,-0.0145,-0.0149,-0.0151,-0.0072,-0.0066,-0.0122,-0.0121,-0.012,-0.0119,0,-0.072,-0.0725,-0.0734,-0.0717,-0.0695,-0.0684,-0.0631,-0.0607,-0.0563,-0.0518,-0.0479,-0.0402,-0.0331,-0.0318,-0.0273,-0.0264,-0.0209,-0.0175,-0.0122,-0.017,-0.0082,-0.0074,-0.0134,-0.0131,-0.0128,-0.0126,0,0,-0.0791,-0.0773,-0.0773,-0.0768,-0.0723,-0.0707,-0.0696,-0.0658,-0.0644,-0.059,-0.0568,-0.0514,-0.0477,-0.0429,-0.0379,-0.0347,-0.0327,-0.0282,-0.0275,-0.0228,-0.019,-0.014,-0.0123,-0.0301,-0.03,-0.03,-0.0125,0,-0.0829,-0.0847,-0.0824,-0.0827,-0.0825,-0.0773,-0.0763,-0.0725,-0.0678,-0.064,-0.0592,-0.0545,-0.0517,-0.0493,-0.0465,-0.0353,-0.0309,-0.0375,-0.0129,-0.012,-0.0089,-0.0114,-0.0069,0.0091,-0.0116,-0.0114,-0.0113,0,-0.087,-0.0875,-0.0892,-0.0873,-0.0868,-0.0863,-0.083,-0.0809,-0.0755,-0.0719,-0.0686,-0.0625,-0.0583,-0.0543,-0.0402,-0.0446,-0.0333,-0.0249,-0.0239,-0.0121,-0.0054,0.0111,0.0116,0.0271,-0.0097,-0.0099,-0.01,0,-0.0917,-0.0917,-0.0933,-0.0925,-0.0899,-0.09,-0.0883,-0.0838,-0.082,-0.0765,-0.0736,-0.0677,-0.0619,-0.0512,-0.0356,-0.0372,-0.0176,-0.0161,-0.0004,0.0002,0.0129,0.0144,0.0297,-0.0047,-0.0047,-0.0048,-0.0048,0,-0.0953,-0.0963,-0.0958,-0.0963,-0.0983,-0.0946,-0.095,-0.0921,-0.0877,-0.0855,-0.0784,-0.074,-0.0609,-0.0485,-0.0358,-0.0153,-0.0168,-0.0012,0.0045,0.007,0.0077,0.0291,0.0349,-0.0041,-0.0043,-0.0044,-0.0045,0,-0.0988,-0.0985,-0.1005,-0.1001,-0.1002,-0.1016,-0.0999,-0.0996,-0.0942,-0.0906,-0.0891,-0.0771,-0.0606,-0.0451,-0.0238,-0.0128,0.0162,0.0135,0.016,0.0215,0.0475,0.0521,0.0766,0.087,0.0328,0.033,0.0332,0,-0.1003,-0.1017,-0.1041,-0.1063,-0.1063,-0.1074,-0.108,-0.1039,-0.1026,-0.0919,-0.0903,-0.0737,-0.061,-0.0283,-0.0062,0.0188,0.03,0.0384,0.0352,0.0501,0.0595,0.0629,0.0699,0.0463,0.0466,0.0468,0.047,0,-0.1029,-0.1042,-0.1065,-0.1112,-0.1135,-0.1151,-0.1151,-0.1153,-0.1088,-0.1027,-0.0911,-0.0795,-0.0467,-0.0172,0.0152,0.0301,0.0504,0.0438,0.0593,0.071,0.0762,0.0885,0.0349,0.049,0.0488,0.0487,0.0485,0.0485,-0.1049,-0.1082,-0.1117,-0.1159,-0.1191,-0.1216,-0.1223,-0.1201,-0.1161,-0.1048,-0.0924,-0.0701,-0.0267,0.0192,0.0366,0.0749,0.0707,0.0862,0.0909,0.0933,0.1015,0.0523,0.0716,0.0715,0.0715,0.0714,0.0713,0,-0.1066,-0.1107,-0.1156,-0.1208,-0.1246,-0.1246,-0.1255,-0.1232,-0.1178,-0.1029,-0.0877,-0.0381,0.0057,0.0455,0.098,0.1199,0.1249,0.1307,0.1371,0.1423,0.1004,0.099,0.125,0.125,0.125,0.1249,0.1249,0.1249,-0.1079,-0.1131,-0.116,-0.1232,-0.1268,-0.1289,-0.1291,-0.1237,-0.1127,-0.0853,-0.057,-0.0346,0.0238,0.1076,0.157,0.1622,0.181,0.1802,0.1898,0.1602,0.1563,0.1527,0.1529,0.1897,0.1898,0.2314,0.2318,0.2321]}],[{"header":{"parameterUnit":"m.s-1","parameterCategory":2,"la1":30.2991,"la2":30.254,"lo1":-89.0895,"lo2":-89.0444,"dy":0.0017,"dx":0.0017,"nx":28,"ny":28,"refTime":"2025-02-24T09:00:00:Z","depth":"2","parameterNumber":2,"parameterNumberName":"U-component_of_CURRENTS"},"data":[0,0,0,0,0,0,0,0,0,0,0,0,0,0,0,0,0,0,0,0,0,0,0,0,0,0,0,0,0,0,0,0,0,0,0,0,0,0,0,0,0,0,0,0,0,0,0,0,0,0,0,0,0,0,0,0,0,0,-0.2183,-0.2184,0,-0.224,-0.224,-0.2241,-0.2212,-0.2211,-0.221,-0.2209,-0.2222,-0.2224,-0.2225,0,0,0,0,0,0,0,0,0,0,0,0,0,-0.2061,-0.2063,-0.2183,-0.2184,-0.2185,-0.224,-0.224,-0.2241,-0.2213,-0.2211,-0.221,-0.2208,-0.2222,-0.2223,-0.2225,0,0,0,0,0,0,0,0,0,0,0,0,0,-0.2114,-0.2064,-0.2183,-0.2179,-0.2179,-0.2239,-0.224,-0.2241,-0.2213,-0.2211,-0.2209,-0.2207,-0.2221,-0.2223,-0.2226,-0.2279,0,0,-0.2233,-0.2234,0,0,0,0,0,0,0,0,-0.2111,-0.2118,-0.2178,-0.2179,-0.218,-0.2219,-0.2202,-0.2252,-0.2214,-0.2198,-0.2209,-0.2206,-0.222,-0.2222,-0.2235,-0.228,-0.228,-0.2233,-0.2234,-0.2235,-0.2236,0,0,0,0,0,0,0,-0.2107,-0.2116,-0.2203,-0.218,-0.218,-0.2178,-0.2183,-0.2212,-0.2217,-0.2199,-0.2198,-0.2208,-0.2219,-0.2233,-0.2235,-0.2281,-0.2233,-0.2235,-0.2236,-0.2237,-0.235,-0.2351,0,0,0,0,0,0,-0.2106,-0.2113,-0.2202,-0.2205,-0.2142,-0.2182,-0.2187,-0.2207,-0.2217,-0.2218,-0.221,-0.2206,-0.223,-0.2232,-0.2235,-0.2271,-0.2235,-0.2238,-0.2239,-0.2348,-0.235,-0.2352,0,0,0,0,0,0,-0.2104,-0.2114,-0.2199,-0.2161,-0.2171,-0.2186,-0.2208,-0.2209,-0.2219,-0.2226,-0.2225,-0.2218,-0.2228,-0.2232,-0.2263,-0.2272,-0.2239,-0.2241,-0.2346,-0.2349,-0.2351,-0.236,0,0,0,0,0,0,-0.21,-0.2113,-0.2128,-0.2161,-0.2174,-0.2234,-0.221,-0.2211,-0.2229,-0.2225,-0.2234,-0.2233,-0.2227,-0.226,-0.2266,-0.2274,-0.2243,-0.2344,-0.2347,-0.235,-0.2358,-0.2363,-0.2367,0,0,0,0,0,-0.2096,-0.2126,-0.2128,-0.2139,-0.2193,-0.2235,-0.2242,-0.2243,-0.2231,-0.2243,-0.225,-0.2232,-0.2282,-0.2264,-0.227,-0.2279,-0.2343,-0.2347,-0.235,-0.2356,-0.2362,-0.2367,0,0,0,0,0,0,-0.2085,-0.2127,-0.213,-0.2172,-0.22,-0.2231,-0.2247,-0.2252,-0.2269,-0.2263,-0.226,-0.2261,-0.2292,-0.2296,-0.2275,-0.2323,-0.2308,-0.2313,-0.231,-0.2316,-0.232,-0.2305,-0.2245,0,0,0,0,0,-0.2091,-0.2119,-0.2157,-0.219,-0.2205,-0.2228,-0.2246,-0.2251,-0.2272,-0.2277,-0.2285,-0.2298,-0.2316,-0.2322,-0.2344,-0.2376,-0.2348,-0.2386,-0.2391,-0.2394,-0.2388,-0.2369,-0.2369,-0.2363,-0.2363,-0.2363,0,0,-0.2097,-0.2123,-0.2139,-0.2188,-0.2209,-0.2239,-0.2233,-0.2266,-0.2285,-0.2279,-0.2308,-0.232,-0.2332,-0.2361,-0.2374,-0.236,-0.238,-0.2398,-0.2401,-0.2393,-0.2372,-0.2372,-0.2372,-0.2366,-0.2365,-0.2365,0,0,-0.2115,-0.2145,-0.2169,-0.2197,-0.2234,-0.2253,-0.2263,-0.2301,-0.2308,-0.2348,-0.2343,-0.2357,-0.2397,-0.2395,-0.2401,-0.2449,-0.2409,-0.2462,-0.2462,-0.2444,-0.2443,-0.2442,-0.2389,-0.2383,-0.2456,-0.2456,-0.2456,0,-0.2119,-0.2152,-0.2183,-0.2211,-0.2231,-0.2259,-0.2283,-0.231,-0.2351,-0.2358,-0.2356,-0.2399,-0.2408,-0.2424,-0.2438,-0.2454,-0.2428,-0.2435,-0.2445,-0.2444,-0.2443,-0.2389,-0.2382,-0.2457,-0.2457,-0.2457,-0.2457,0,-0.2147,-0.2176,-0.2195,-0.2235,-0.2264,-0.2294,-0.2333,-0.2359,-0.2373,-0.2389,-0.2416,-0.2431,-0.2444,-0.2457,-0.2462,-0.2466,-0.2444,-0.2455,-0.2422,-0.2443,-0.2386,-0.2378,-0.2458,-0.2458,-0.2457,-0.2457,0,0,-0.2141,-0.2201,-0.2204,-0.2216,-0.2276,-0.2298,-0.2341,-0.2376,-0.2386,-0.2423,-0.2426,-0.2465,-0.2462,-0.247,-0.2475,-0.2462,-0.2429,-0.2456,-0.2455,-0.2384,-0.236,-0.2279,-0.2263,-0.244,-0.244,-0.244,-0.2314,0,-0.2145,-0.2184,-0.222,-0.2255,-0.2275,-0.2317,-0.2349,-0.2385,-0.241,-0.2426,-0.2438,-0.2452,-0.2471,-0.2469,-0.2464,-0.2449,-0.2415,-0.246,-0.2366,-0.2363,-0.2273,-0.2254,-0.2121,-0.1993,-0.2307,-0.2306,-0.2305,0,-0.2144,-0.217,-0.2201,-0.2244,-0.2257,-0.2285,-0.232,-0.2355,-0.2393,-0.2409,-0.2427,-0.244,-0.2441,-0.2447,-0.241,-0.2439,-0.2397,-0.2374,-0.2369,-0.2284,-0.2269,-0.2029,-0.1968,-0.2293,-0.2294,-0.2295,-0.2296,0,-0.2088,-0.2148,-0.2163,-0.2183,-0.2246,-0.226,-0.2292,-0.2339,-0.2358,-0.239,-0.2395,-0.241,-0.2401,-0.2379,-0.2353,-0.2376,-0.2288,-0.231,-0.2185,-0.2178,-0.2039,-0.2021,-0.2254,-0.2254,-0.2254,-0.2254,-0.2255,0,-0.2063,-0.2072,-0.2136,-0.2143,-0.2155,-0.2217,-0.2231,-0.2267,-0.231,-0.2319,-0.2373,-0.2368,-0.2386,-0.2353,-0.2328,-0.2226,-0.2262,-0.2165,-0.2139,-0.2039,-0.2022,-0.2276,-0.228,-0.225,-0.2251,-0.2252,-0.2252,0,-0.1986,-0.2035,-0.205,-0.211,-0.2126,-0.2129,-0.2187,-0.2194,-0.2253,-0.2262,-0.2269,-0.2317,-0.2276,-0.2265,-0.2209,-0.2168,-0.2096,-0.2044,-0.1909,-0.187,-0.1998,-0.2005,-0.1882,-0.1878,-0.1875,-0.1872,-0.187,0,-0.1944,-0.1945,-0.1999,-0.2002,-0.2025,-0.205,-0.2063,-0.2142,-0.2159,-0.2222,-0.2211,-0.2201,-0.2166,-0.2056,-0.1983,-0.188,-0.1975,-0.1695,-0.172,-0.1972,-0.196,-0.1972,-0.1983,-0.1529,-0.1524,-0.152,-0.1517,0,-0.1852,-0.1875,-0.1888,-0.1896,-0.1909,-0.1927,-0.196,-0.1968,-0.2056,-0.2068,-0.2075,-0.2054,-0.1972,-0.1817,-0.1698,-0.1632,-0.171,-0.1607,-0.1889,-0.1658,-0.1632,-0.1624,-0.1647,-0.1481,-0.1485,-0.1487,-0.1489,-0.1491,-0.1767,-0.1752,-0.177,-0.1765,-0.1784,-0.1783,-0.1757,-0.1806,-0.1809,-0.1806,-0.1882,-0.1802,-0.1774,-0.1522,-0.1414,-0.1325,-0.1447,-0.1389,-0.1404,-0.1422,-0.1418,-0.139,-0.1189,-0.1191,-0.1193,-0.1194,-0.1195,0,-0.1648,-0.1646,-0.1636,-0.163,-0.1599,-0.1654,-0.1663,-0.1617,-0.1575,-0.1602,-0.1584,-0.1411,-0.1291,-0.1263,-0.1069,-0.1011,-0.1023,-0.0967,-0.1003,-0.1038,-0.107,-0.1051,-0.0723,-0.0721,-0.072,-0.0718,0,0,-0.1583,-0.1533,-0.1528,-0.144,-0.1435,-0.1356,-0.1333,-0.129,-0.1279,-0.1204,-0.1168,-0.125,-0.1251,-0.1013,-0.0933,-0.0803,-0.0916,-0.0753,-0.1133,-0.1214,-0.1244,-0.1312,-0.1322,0,0,0,0,0]},{"header":{"parameterUnit":"m.s-1","parameterCategory":2,"la1":30.2991,"la2":30.254,"lo1":-89.0895,"lo2":-89.0444,"dy":0.0017,"dx":0.0017,"nx":28,"ny":28,"refTime":"2025-02-24T09:00:00:Z","depth":"2","parameterNumber":3,"parameterNumberName":"V-component_of_CURRENTS"},"data":[0,0,0,0,0,0,0,0,0,0,0,0,0,0,0,0,0,0,0,0,0,0,0,0,0,0,0,0,0,0,0,0,0,0,0,0,0,0,0,0,0,0,0,0,0,0,0,0,0,0,0,0,0,0,0,0,0,0,-0.0321,-0.032,0,-0.0218,-0.0216,-0.0215,-0.0133,-0.0132,-0.0132,-0.0131,0.0025,0.0028,0.0032,0,0,0,0,0,0,0,0,0,0,0,0,0,-0.0345,-0.0346,-0.0321,-0.032,-0.0319,-0.0218,-0.0216,-0.0215,-0.0133,-0.0132,-0.0131,-0.0131,0.0024,0.0028,0.0032,0,0,0,0,0,0,0,0,0,0,0,0,0,-0.0296,-0.0346,-0.0322,-0.0268,-0.0262,-0.0218,-0.0216,-0.0214,-0.0133,-0.0132,-0.0131,-0.013,0.0022,0.0028,0.0033,0.0048,0,0,0.0049,0.0052,0,0,0,0,0,0,0,0,-0.0299,-0.0295,-0.0277,-0.0272,-0.0265,-0.0189,-0.0167,-0.0125,-0.0133,-0.018,-0.0131,-0.013,-0.0044,-0.0033,-0.0013,0.0055,0.0062,0.005,0.0053,0.0055,0.0057,0,0,0,0,0,0,0,-0.0303,-0.0298,-0.0278,-0.0276,-0.0269,-0.0214,-0.0206,-0.0158,-0.0115,-0.0176,-0.017,-0.0162,-0.004,-0.0019,-0.0009,0.0064,0.005,0.0054,0.0058,0.006,0.0157,0.0157,0,0,0,0,0,0,-0.0327,-0.0302,-0.0281,-0.0275,-0.0283,-0.0215,-0.0206,-0.0213,-0.0117,-0.0103,-0.0163,-0.0159,-0.0028,-0.0015,-0.0003,0.0019,0.0055,0.006,0.0064,0.0158,0.0157,0.0156,0,0,0,0,0,0,-0.0328,-0.0326,-0.0286,-0.0287,-0.0278,-0.0216,-0.0223,-0.0211,-0.0188,-0.0109,-0.0092,-0.0153,-0.0027,-0.001,0.0035,0.0026,0.0063,0.0068,0.0159,0.0158,0.0157,0.0064,0,0,0,0,0,0,-0.0329,-0.0328,-0.0338,-0.0289,-0.0279,-0.0267,-0.0224,-0.021,-0.0186,-0.0179,-0.0094,-0.0079,-0.0025,0.0026,0.004,0.0034,0.0072,0.0159,0.0158,0.0157,0.0068,0.006,0.0054,0,0,0,0,0,-0.0331,-0.035,-0.0339,-0.0336,-0.0297,-0.0267,-0.0257,-0.0207,-0.0186,-0.0181,-0.0126,-0.0081,0.0029,0.003,0.0047,0.0042,0.016,0.0159,0.0157,0.0071,0.0062,0.0054,0,0,0,0,0,0,-0.0363,-0.0342,-0.0329,-0.0341,-0.0311,-0.0255,-0.0245,-0.0216,-0.0168,-0.0161,-0.0086,-0.0067,-0.0032,0.0015,0.0015,0.0065,0.01,0.0102,0.0029,0.0021,0.0014,0.0003,0.0076,0,0,0,0,0,-0.0379,-0.0389,-0.0355,-0.0363,-0.0353,-0.0303,-0.0284,-0.0254,-0.0208,-0.0186,-0.0129,-0.0071,-0.0026,0.0004,0.0052,0.0082,0.0129,0.0088,0.0081,0.0074,0.0076,0.0132,0.013,0.0152,0.0152,0.0152,0,0,-0.0393,-0.0384,-0.0388,-0.0371,-0.0343,-0.0334,-0.0288,-0.0269,-0.0257,-0.0177,-0.0143,-0.0095,-0.0025,0.0007,0.0027,0.0047,0.009,0.0072,0.0066,0.0072,0.013,0.0128,0.0127,0.0151,0.0151,0.0151,0,0,-0.0425,-0.0421,-0.0437,-0.0419,-0.039,-0.036,-0.0361,-0.0312,-0.0285,-0.0253,-0.0196,-0.0154,-0.0082,-0.0034,-0.0,-0.0019,0.0046,-0.0009,-0.0048,0.0006,0.0004,0.0004,0.0048,0.0052,-0.0009,-0.001,-0.001,0,-0.0442,-0.0459,-0.0434,-0.0438,-0.0427,-0.0379,-0.0383,-0.0353,-0.0294,-0.0276,-0.0254,-0.0154,-0.0099,-0.0053,-0.0063,-0.0034,0.0002,-0.0022,-0.0004,-0.0003,-0.0002,0.0043,0.0049,-0.0014,-0.0014,-0.0013,-0.0013,0,-0.0479,-0.0489,-0.0495,-0.0489,-0.0474,-0.0472,-0.0432,-0.0414,-0.038,-0.0343,-0.0297,-0.0224,-0.0162,-0.0145,-0.0107,-0.0076,-0.0053,-0.0024,0.0016,-0.001,0.0039,0.0047,-0.0021,-0.0019,-0.0018,-0.0017,0,0,-0.0524,-0.0523,-0.0524,-0.0529,-0.0502,-0.0494,-0.0482,-0.0453,-0.0441,-0.0388,-0.0362,-0.0293,-0.0253,-0.0214,-0.0161,-0.0115,-0.0083,-0.0076,-0.0071,-0.0037,0.0027,0.0056,0.0068,-0.0054,-0.0053,-0.0052,0.0053,0,-0.0557,-0.0585,-0.0569,-0.0585,-0.0594,-0.0553,-0.0545,-0.0512,-0.0473,-0.0438,-0.0366,-0.0322,-0.0279,-0.0253,-0.0204,-0.0109,-0.0065,-0.0114,0.0052,0.0057,0.0082,0.0077,0.006,0.0154,0.0061,0.0063,0.0064,0,-0.0594,-0.0608,-0.0637,-0.0636,-0.0635,-0.0635,-0.0612,-0.0596,-0.0539,-0.0506,-0.0453,-0.0393,-0.0321,-0.0282,-0.0138,-0.0173,-0.0086,-0.0012,-0.0006,0.0062,0.0101,0.0169,0.0172,0.0078,0.0076,0.0075,0.0074,0,-0.0637,-0.0652,-0.0679,-0.0678,-0.067,-0.0673,-0.0663,-0.062,-0.0605,-0.0548,-0.0525,-0.0435,-0.0379,-0.0266,-0.0123,-0.0129,0.0042,0.0059,0.0168,0.0171,0.0213,0.0217,0.0161,0.0161,0.0161,0.0161,0.016,0,-0.0678,-0.0697,-0.0704,-0.0718,-0.0745,-0.0719,-0.0728,-0.0703,-0.0662,-0.0643,-0.0565,-0.0519,-0.0372,-0.0258,-0.0135,0.0042,0.0037,0.0165,0.0204,0.0178,0.0178,0.016,0.0158,0.0165,0.0164,0.0163,0.0162,0,-0.0716,-0.0722,-0.0755,-0.0764,-0.0768,-0.0787,-0.0779,-0.078,-0.0734,-0.0705,-0.0689,-0.0574,-0.0423,-0.0267,-0.0069,0.0035,0.0196,0.026,0.0213,0.0244,0.029,0.0282,0.0389,0.0391,0.0393,0.0394,0.0395,0,-0.0737,-0.0759,-0.0794,-0.0819,-0.0827,-0.0845,-0.0856,-0.0823,-0.0816,-0.073,-0.0715,-0.0574,-0.0458,-0.0166,0.0037,0.0259,0.0256,0.0368,0.0357,0.0288,0.0315,0.0305,0.0295,0.0372,0.0373,0.0374,0.0374,0,-0.0771,-0.0786,-0.0815,-0.087,-0.0898,-0.0922,-0.093,-0.0936,-0.0885,-0.0836,-0.074,-0.0639,-0.0363,-0.0121,0.0155,0.0283,0.0327,0.039,0.035,0.0311,0.028,0.0303,0.0293,0.0381,0.038,0.038,0.0379,0.0379,-0.0792,-0.0827,-0.0868,-0.0915,-0.0954,-0.0986,-0.0997,-0.0983,-0.0955,-0.086,-0.0761,-0.0573,-0.0353,0.005,0.0245,0.0422,0.0416,0.0465,0.046,0.0455,0.0428,0.0401,0.052,0.052,0.052,0.052,0.052,0,-0.0808,-0.0851,-0.0904,-0.0964,-0.1008,-0.1013,-0.1031,-0.1012,-0.0968,-0.0849,-0.0721,-0.0451,-0.0174,0.0057,0.0347,0.0515,0.0495,0.0538,0.0479,0.0472,0.0466,0.0437,0.0533,0.0533,0.0534,0.0534,0,0,-0.082,-0.0873,-0.0903,-0.0983,-0.1026,-0.1056,-0.1062,-0.1013,-0.0923,-0.0788,-0.0638,-0.0443,-0.016,0.0046,0.0254,0.0405,0.0394,0.0419,0.0392,0.0292,0.0284,0.0411,0.0358,0,0,0,0,0]}],[{"header":{"parameterUnit":"m.s-1","parameterCategory":2,"la1":30.2991,"la2":30.254,"lo1":-89.0895,"lo2":-89.0444,"dy":0.0017,"dx":0.0017,"nx":28,"ny":28,"refTime":"2025-02-24T09:00:00:Z","depth":"4","parameterNumber":2,"parameterNumberName":"U-component_of_CURRENTS"},"data":[0,0,0,0,0,0,0,0,0,0,0,0,0,0,0,0,0,0,0,0,0,0,0,0,0,0,0,0,0,0,0,0,0,0,0,0,0,0,0,0,0,0,0,0,0,0,0,0,0,0,0,0,0,0,0,0,0,0,-0.1477,-0.1478,0,-0.1564,-0.1565,-0.1566,-0.1606,-0.1605,-0.1605,-0.1605,-0.1628,-0.1629,-0.163,0,0,0,0,0,0,0,0,0,0,0,0,0,-0.1379,-0.138,-0.1477,-0.1478,-0.1479,-0.1564,-0.1565,-0.1567,-0.1606,-0.1605,-0.1605,-0.1605,-0.1628,-0.1629,-0.163,0,0,0,0,0,0,0,0,0,0,0,0,0,-0.1439,-0.1381,-0.1477,-0.1509,-0.1513,-0.1564,-0.1565,-0.1567,-0.1606,-0.1605,-0.1605,-0.1605,-0.1628,-0.1629,-0.163,-0.1639,0,0,-0.1633,-0.1634,0,0,0,0,0,0,0,0,-0.1436,-0.1443,-0.1503,-0.1507,-0.1511,-0.1574,-0.1539,-0.1588,-0.1606,-0.157,-0.1605,-0.1605,-0.1604,-0.1607,-0.1625,-0.164,-0.1641,-0.1633,-0.1634,-0.1634,-0.1635,0,0,0,0,0,0,0,-0.1431,-0.1439,-0.1511,-0.1504,-0.1509,-0.1531,-0.1539,-0.1549,-0.1586,-0.1573,-0.1576,-0.1586,-0.1606,-0.1624,-0.1625,-0.1641,-0.1633,-0.1634,-0.1635,-0.1635,-0.1697,-0.1698,0,0,0,0,0,0,-0.142,-0.1435,-0.1509,-0.1514,-0.1473,-0.1533,-0.1542,-0.1554,-0.1587,-0.1593,-0.1586,-0.1588,-0.1622,-0.1624,-0.1626,-0.1679,-0.1634,-0.1635,-0.1636,-0.1696,-0.1697,-0.1698,0,0,0,0,0,0,-0.1417,-0.1425,-0.1505,-0.1477,-0.1488,-0.1534,-0.1548,-0.1556,-0.1596,-0.1598,-0.1602,-0.1621,-0.1622,-0.1625,-0.1663,-0.1678,-0.1636,-0.1637,-0.1694,-0.1696,-0.1697,-0.1758,0,0,0,0,0,0,-0.1414,-0.1424,-0.1442,-0.1476,-0.1489,-0.1548,-0.1548,-0.1557,-0.1601,-0.1605,-0.1628,-0.1629,-0.1622,-0.1662,-0.1664,-0.1679,-0.1638,-0.1693,-0.1695,-0.1697,-0.1755,-0.1761,-0.1767,0,0,0,0,0,-0.141,-0.1428,-0.1443,-0.1452,-0.1509,-0.1549,-0.1559,-0.159,-0.1603,-0.1626,-0.1649,-0.163,-0.1674,-0.1665,-0.1667,-0.1682,-0.1692,-0.1695,-0.1697,-0.1752,-0.176,-0.1767,0,0,0,0,0,0,-0.14,-0.1435,-0.1451,-0.1481,-0.1519,-0.1556,-0.1583,-0.1606,-0.1646,-0.1654,-0.1655,-0.1658,-0.1693,-0.1683,-0.1672,-0.1704,-0.1675,-0.1678,-0.1716,-0.1724,-0.173,-0.1722,-0.1638,0,0,0,0,0,-0.1405,-0.1425,-0.1465,-0.1493,-0.1513,-0.1555,-0.1581,-0.1605,-0.1638,-0.1657,-0.168,-0.1693,-0.1701,-0.1711,-0.172,-0.1746,-0.1719,-0.1753,-0.1759,-0.1765,-0.176,-0.1744,-0.1748,-0.1705,-0.1705,-0.1705,0,0,-0.1411,-0.1431,-0.1446,-0.1492,-0.1524,-0.1563,-0.1571,-0.1617,-0.1655,-0.1651,-0.1717,-0.1723,-0.1715,-0.1744,-0.1757,-0.174,-0.1763,-0.1768,-0.1772,-0.1764,-0.1746,-0.175,-0.1754,-0.1707,-0.1707,-0.1706,0,0,-0.142,-0.145,-0.1471,-0.1505,-0.1556,-0.1584,-0.1603,-0.1661,-0.1693,-0.1751,-0.1751,-0.1769,-0.1803,-0.1795,-0.1791,-0.1836,-0.1799,-0.184,-0.1864,-0.185,-0.1853,-0.1855,-0.1826,-0.1825,-0.184,-0.184,-0.184,0,-0.143,-0.1459,-0.1486,-0.1517,-0.1551,-0.1596,-0.1635,-0.1676,-0.1743,-0.1767,-0.1779,-0.1822,-0.182,-0.1829,-0.1846,-0.1848,-0.1832,-0.1838,-0.1857,-0.1859,-0.186,-0.1829,-0.1828,-0.1843,-0.1843,-0.1843,-0.1842,0,-0.1448,-0.1488,-0.1505,-0.1558,-0.1598,-0.1641,-0.1694,-0.1746,-0.1791,-0.1823,-0.1868,-0.1876,-0.1892,-0.1895,-0.1887,-0.1895,-0.1878,-0.1869,-0.1837,-0.1868,-0.1834,-0.1831,-0.1848,-0.1847,-0.1846,-0.1845,0,0,-0.1429,-0.1504,-0.1514,-0.1548,-0.1626,-0.1657,-0.1725,-0.1786,-0.1822,-0.1884,-0.192,-0.1941,-0.1946,-0.1941,-0.1933,-0.1922,-0.192,-0.1907,-0.1905,-0.1875,-0.1882,-0.1762,-0.1747,-0.1921,-0.1921,-0.1921,-0.1855,0,-0.1442,-0.1499,-0.1539,-0.1609,-0.1646,-0.1709,-0.1762,-0.1823,-0.1874,-0.1922,-0.1933,-0.1963,-0.1963,-0.1969,-0.1964,-0.1934,-0.1915,-0.1938,-0.1858,-0.1855,-0.1742,-0.174,-0.1921,-0.1853,-0.1852,-0.1851,-0.1851,0,-0.1442,-0.1483,-0.1549,-0.1631,-0.1654,-0.1705,-0.1788,-0.1842,-0.1908,-0.1944,-0.1978,-0.1992,-0.1998,-0.1988,-0.1953,-0.1973,-0.1932,-0.1902,-0.1899,-0.1759,-0.1729,-0.1815,-0.1845,-0.1845,-0.1846,-0.1846,-0.1847,0,-0.1397,-0.1489,-0.154,-0.1572,-0.1671,-0.1715,-0.1771,-0.1848,-0.1886,-0.1955,-0.1977,-0.2002,-0.2002,-0.1978,-0.1934,-0.1949,-0.1877,-0.1883,-0.173,-0.1721,-0.1825,-0.1823,-0.1839,-0.1839,-0.1839,-0.184,-0.184,0,-0.1379,-0.1424,-0.1528,-0.1555,-0.1614,-0.1695,-0.1756,-0.1815,-0.1885,-0.1907,-0.198,-0.1979,-0.2001,-0.1972,-0.1934,-0.1814,-0.1874,-0.172,-0.1691,-0.1852,-0.1854,-0.1822,-0.1821,-0.1837,-0.1838,-0.1838,-0.1839,0,-0.1314,-0.1388,-0.1448,-0.1558,-0.1594,-0.1634,-0.1736,-0.1764,-0.1851,-0.188,-0.19,-0.1956,-0.1918,-0.1911,-0.1852,-0.1783,-0.1699,-0.1637,-0.1799,-0.1783,-0.1556,-0.1559,-0.1461,-0.1456,-0.1452,-0.1449,-0.1446,0,-0.128,-0.1307,-0.1425,-0.1455,-0.1508,-0.1583,-0.1622,-0.1729,-0.1754,-0.1839,-0.1829,-0.184,-0.1855,-0.1674,-0.1692,-0.1598,-0.1574,-0.1521,-0.1547,-0.1532,-0.1515,-0.1525,-0.1533,-0.1439,-0.1438,-0.1437,-0.1436,0,-0.1207,-0.1262,-0.1307,-0.1368,-0.1422,-0.147,-0.1537,-0.1541,-0.1645,-0.1739,-0.1702,-0.1671,-0.162,-0.1579,-0.151,-0.145,-0.1557,-0.1477,-0.1486,-0.151,-0.1505,-0.1493,-0.1507,-0.1421,-0.1424,-0.1425,-0.1426,0,-0.1144,-0.1153,-0.1218,-0.1256,-0.1319,-0.133,-0.1386,-0.1408,-0.1446,-0.1551,-0.1528,-0.1548,-0.1601,-0.1498,-0.1439,-0.1369,-0.1348,-0.1297,-0.1315,-0.1331,-0.1318,-0.1293,-0.1103,0,0,0,0,0,-0.1072,-0.1067,-0.1096,-0.1133,-0.119,-0.1224,-0.1312,-0.1371,-0.1473,-0.1402,-0.1464,-0.1415,-0.1341,-0.1354,-0.1249,-0.1365,-0.1347,-0.1236,-0.1299,-0.1341,-0.1358,-0.1354,0,0,0,0,0,0,-0.1021,-0.1046,-0.1053,-0.102,-0.1019,-0.1065,-0.1113,-0.1189,-0.1164,-0.1272,-0.1237,-0.1315,-0.1262,-0.1368,-0.1215,-0.1214,-0.1219,-0.1257,-0.1253,-0.1332,-0.1347,-0.136,-0.1362,0,0,0,0,0]},{"header":{"parameterUnit":"m.s-1","parameterCategory":2,"la1":30.2991,"la2":30.254,"lo1":-89.0895,"lo2":-89.0444,"dy":0.0017,"dx":0.0017,"nx":28,"ny":28,"refTime":"2025-02-24T09:00:00:Z","depth":"4","parameterNumber":3,"parameterNumberName":"V-component_of_CURRENTS"},"data":[0,0,0,0,0,0,0,0,0,0,0,0,0,0,0,0,0,0,0,0,0,0,0,0,0,0,0,0,0,0,0,0,0,0,0,0,0,0,0,0,0,0,0,0,0,0,0,0,0,0,0,0,0,0,0,0,0,0,-0.0221,-0.022,0,-0.0158,-0.0157,-0.0156,-0.0102,-0.0101,-0.0101,-0.0101,0.0002,0.0004,0.0007,0,0,0,0,0,0,0,0,0,0,0,0,0,-0.0225,-0.0225,-0.0221,-0.022,-0.022,-0.0158,-0.0157,-0.0156,-0.0102,-0.0101,-0.0101,-0.01,0.0001,0.0004,0.0007,0,0,0,0,0,0,0,0,0,0,0,0,0,-0.0197,-0.0225,-0.0221,-0.0187,-0.0183,-0.0158,-0.0157,-0.0156,-0.0102,-0.0101,-0.0101,-0.01,0.0,0.0004,0.0007,0.0016,0,0,0.0018,0.0019,0,0,0,0,0,0,0,0,-0.0199,-0.0196,-0.0192,-0.0189,-0.0185,-0.0139,-0.0121,-0.0097,-0.0102,-0.0131,-0.0101,-0.01,-0.0043,-0.0036,-0.0023,0.0021,0.0025,0.0018,0.002,0.0022,0.0023,0,0,0,0,0,0,0,-0.0201,-0.0198,-0.0194,-0.0192,-0.0187,-0.0151,-0.0146,-0.0116,-0.0089,-0.0128,-0.0125,-0.0121,-0.004,-0.0027,-0.0021,0.0026,0.0018,0.0021,0.0023,0.0025,0.008,0.0079,0,0,0,0,0,0,-0.0217,-0.0201,-0.0196,-0.0192,-0.0192,-0.0152,-0.0147,-0.0153,-0.009,-0.0081,-0.0122,-0.0119,-0.0033,-0.0025,-0.0017,-0.0001,0.0022,0.0025,0.0027,0.008,0.008,0.0079,0,0,0,0,0,0,-0.0217,-0.0217,-0.0199,-0.0196,-0.0191,-0.0153,-0.016,-0.0152,-0.0138,-0.0086,-0.0075,-0.0116,-0.0032,-0.0022,0.0008,0.0003,0.0027,0.003,0.0081,0.008,0.0079,0.0028,0,0,0,0,0,0,-0.0218,-0.0218,-0.0227,-0.0198,-0.0192,-0.019,-0.016,-0.0151,-0.0138,-0.0134,-0.0078,-0.0068,-0.0031,0.0002,0.0011,0.0008,0.0032,0.0082,0.0081,0.008,0.0031,0.0026,0.0021,0,0,0,0,0,-0.0218,-0.0233,-0.0228,-0.0227,-0.0206,-0.019,-0.0184,-0.0152,-0.0139,-0.0137,-0.0099,-0.007,0.0001,0.0005,0.0015,0.0013,0.0083,0.0081,0.008,0.0033,0.0027,0.0022,0,0,0,0,0,0,-0.0237,-0.0229,-0.0222,-0.0234,-0.0217,-0.0182,-0.0178,-0.0159,-0.0129,-0.0124,-0.0073,-0.006,-0.0038,-0.0009,-0.0007,0.0023,0.0045,0.0045,0.0005,0.0,-0.0004,-0.0013,0.0035,0,0,0,0,0,-0.0248,-0.0259,-0.0241,-0.025,-0.0245,-0.0214,-0.0204,-0.0186,-0.0156,-0.0142,-0.0104,-0.0067,-0.0036,-0.0016,0.0014,0.0033,0.0065,0.0036,0.0032,0.0028,0.0026,0.0071,0.007,0.0074,0.0074,0.0074,0,0,-0.0258,-0.0255,-0.0261,-0.0255,-0.0239,-0.0236,-0.0206,-0.0198,-0.019,-0.0136,-0.0114,-0.0082,-0.0037,-0.0015,-0.0003,0.0011,0.0041,0.0026,0.0022,0.0023,0.0069,0.0069,0.0069,0.0073,0.0073,0.0074,0,0,-0.0281,-0.0282,-0.0296,-0.0288,-0.0274,-0.0256,-0.0258,-0.0229,-0.0212,-0.0192,-0.0152,-0.0122,-0.0078,-0.0042,-0.0019,-0.0033,0.0012,-0.003,-0.0053,-0.001,-0.001,-0.0009,0.0022,0.0026,-0.0028,-0.0028,-0.0029,0,-0.0292,-0.0309,-0.0296,-0.0303,-0.0299,-0.027,-0.0277,-0.0257,-0.022,-0.0208,-0.0194,-0.0126,-0.0088,-0.0053,-0.0059,-0.0041,-0.0016,-0.0034,-0.0016,-0.0014,-0.0012,0.002,0.0025,-0.0031,-0.0031,-0.003,-0.003,0,-0.0319,-0.0332,-0.0338,-0.0341,-0.0334,-0.0337,-0.0313,-0.0302,-0.0281,-0.0255,-0.0222,-0.017,-0.0128,-0.0115,-0.009,-0.0063,-0.0049,-0.0029,-0.0,-0.0016,0.0019,0.0025,-0.0035,-0.0034,-0.0033,-0.0032,0,0,-0.0347,-0.0357,-0.036,-0.0369,-0.0356,-0.0355,-0.0348,-0.0331,-0.0325,-0.0286,-0.0268,-0.0216,-0.0187,-0.0161,-0.0121,-0.0084,-0.0053,-0.0059,-0.0055,-0.0027,0.0032,0.0026,0.0032,-0.0029,-0.0028,-0.0028,0.0049,0,-0.0371,-0.0399,-0.0393,-0.0414,-0.0424,-0.0401,-0.0397,-0.0377,-0.0351,-0.0326,-0.0268,-0.0238,-0.0204,-0.0187,-0.0144,-0.0075,-0.0038,-0.0077,0.0042,0.0045,0.0043,0.0039,-0.0025,0.0054,0.0055,0.0056,0.0057,0,-0.0397,-0.0414,-0.0444,-0.0455,-0.0457,-0.0464,-0.0456,-0.0447,-0.0404,-0.0382,-0.0338,-0.0292,-0.0233,-0.0204,-0.0089,-0.0117,-0.0052,0.0003,0.0008,0.0025,0.005,0.0075,0.0069,0.0068,0.0067,0.0066,0.0066,0,-0.0423,-0.0447,-0.0476,-0.0479,-0.0486,-0.0496,-0.0495,-0.0467,-0.0461,-0.0417,-0.0403,-0.0325,-0.0285,-0.0192,-0.0083,-0.0086,0.0044,0.0061,0.0117,0.0118,0.0125,0.0123,0.014,0.014,0.014,0.0139,0.0139,0,-0.0447,-0.0471,-0.0496,-0.0511,-0.0545,-0.0533,-0.0552,-0.0538,-0.0512,-0.0502,-0.0437,-0.0404,-0.0281,-0.0191,-0.0092,0.0029,0.0042,0.0112,0.0139,0.0099,0.0094,0.0129,0.0126,0.0142,0.0142,0.0141,0.0141,0,-0.0466,-0.0483,-0.0522,-0.0548,-0.056,-0.0584,-0.06,-0.0605,-0.0578,-0.0561,-0.0549,-0.0459,-0.0342,-0.0214,-0.0058,0.0013,0.0134,0.0174,0.0114,0.0136,0.0179,0.0173,0.0242,0.0242,0.0243,0.0243,0.0243,0,-0.0475,-0.0498,-0.0554,-0.0585,-0.0603,-0.0635,-0.0655,-0.0642,-0.064,-0.0587,-0.0575,-0.0473,-0.0398,-0.0179,-0.0052,0.0133,0.0159,0.021,0.0199,0.0172,0.0191,0.0184,0.0178,0.0244,0.0244,0.0244,0.0244,0,-0.049,-0.0516,-0.055,-0.0616,-0.0656,-0.0692,-0.0714,-0.0718,-0.069,-0.0669,-0.058,-0.0468,-0.0337,-0.0175,-0.0036,0.0098,0.017,0.0214,0.0214,0.0205,0.0175,0.0192,0.0185,0.0245,0.0245,0.0245,0.0245,0,-0.05,-0.0532,-0.0582,-0.0635,-0.0693,-0.0727,-0.0739,-0.0721,-0.0709,-0.0642,-0.0613,-0.0466,-0.0381,-0.0193,-0.006,0.0064,0.0095,0.0127,0.0132,0.0132,0.0075,0.0019,0.0064,0,0,0,0,0,-0.05,-0.0537,-0.0593,-0.0654,-0.0712,-0.0738,-0.0765,-0.0764,-0.0742,-0.068,-0.0641,-0.0511,-0.0308,-0.0219,-0.0093,-0.0066,0.0102,0.0083,0.0137,0.0253,0.0251,0.0201,0,0,0,0,0,0,-0.0503,-0.0557,-0.0588,-0.0653,-0.0695,-0.0748,-0.0767,-0.0755,-0.0708,-0.0669,-0.0554,-0.0489,-0.0288,-0.0372,-0.009,-0.0054,-0.0006,0.0182,0.0184,0.0253,0.0252,0.0251,0.0199,0,0,0,0,0]}]]